SCP
0 1 1 1 1 1 0 0 0 0 0 0 0 0 0 0 0 0 0 0 0 0 0 0 0 0 0 0 0 0 0 0 0 0 0 0 0 0 0 0 0 0 0
1 1 1 1 1 1 1 1 0 0 0 0 0 0 0 0 0 0 0 0 0 0 0 0 0 0 0 0 0 0 0 0 0 0 0 0 0 0 0 0 0 0 0
1 1 1 1 1 1 1 1 1 0 0 0 0 0 0 0 0 0 0 0 0 0 0 0 0 0 0 0 0 0 0 0 0 0 0 0 0 0 0 0 0 0 0
1 1 1 1 1 1 1 1 1 1 0 0 0 0 0 0 0 0 0 0 0 0 0 0 0 0 0 0 0 0 0 0 0 0 0 0 0 0 0 0 0 0 0
1 1 1 1 1 1 1 1 1 1 1 0 0 0 0 0 0 0 0 0 0 0 0 0 0 0 0 0 0 0 0 0 0 0 0 0 0 0 0 0 0 0 0
1 1 1 1 1 1 1 1 1 1 1 0 0 0 0 0 0 0 0 0 0 0 0 0 0 0 0 0 0 0 0 0 0 0 0 0 0 0 0 0 0 0 0
1 1 1 1 1 1 1 1 1 1 1 1 0 0 0 0 0 0 0 0 0 0 0 0 0 0 0 0 0 0 0 0 0 0 0 0 0 0 0 0 0 0 0
1 1 1 1 1 1 1 1 1 1 1 1 1 0 0 0 0 0 0 0 0 0 0 0 0 0 0 0 0 0 0 0 0 0 0 0 0 0 0 0 0 0 0
1 1 1 1 1 1 1 1 1 1 1 1 1 0 0 0 0 0 0 0 0 0 -0 -0 -0 0 0 0 0 0 0 0 0 0 0 0 0 0 0 0 0 0 0
1 1 1 1 1 1 1 1 1 1 1 1 1 1 0 0 0 0 0 0 0 0 -0 -0 -0 0 0 0 0 0 0 0 0 0 0 0 0 0 0 0 0 0 0
1 1 0 0 0 1 1 1 1 1 1 1 1 1 0 0 0 0 0 0 0 0 0 -0 0 0 0 0 0 0 0 0 0 0 0 0 0 0 0 0 0 0 0
0 0 0 0 0 0 0 0 1 1 1 1 1 1 0 0 0 0 0 0 0 0 0 0 0 0 0 0 0 0 0 0 0 0 0 0 0 0 0 0 0 0 0
0 0 0 0 0 0 0 0 0 1 1 1 0 0 0 0 0 0 0 0 0 0 0 0 0 0 0 0 0 0 0 0 0 0 0 0 0 0 0 0 0 0 0
0 0 0 0 0 0 0 0 0 0 0 1 0 0 0 0 0 0 0 0 0 0 0 0 0 0 0 0 0 0 0 0 0 0 0 0 0 0 0 0 0 0 0
0 0 0 0 0 0 0 0 0 0 0 0 0 0 0 0 0 0 0 0 0 0 0 0 0 0 0 0 0 0 0 0 0 0 0 0 0 0 0 0 0 0 0
0 0 0 0 0 0 0 0 0 0 0 0 0 0 0 0 0 0 0 0 0 0 0 0 0 0 0 0 0 0 0 0 0 0 0 0 0 0 0 0 0 0 0
0 0 0 0 0 0 0 0 0 0 0 0 0 0 0 0 0 0 0 0 0 0 0 0 0 0 0 0 0 0 0 0 0 0 0 0 0 0 0 0 0 0 0
0 0 0 0 0 0 0 0 0 0 0 0 0 0 0 0 0 0 0 0 0 0 0 0 0 0 0 0 0 0 0 0 0 0 0 0 0 0 0 0 0 0 0
0 0 0 0 0 0 0 0 0 0 0 0 0 0 0 0 0 0 0 0 0 0 0 0 0 0 0 0 0 0 0 0 0 0 0 0 0 0 0 0 0 0 0
0 0 0 0 0 0 0 0 0 0 0 0 0 0 0 0 0 0 0 0 0 0 0 0 0 0 0 0 0 0 0 0 0 0 0 0 0 0 0 0 0 0 0
0 0 0 0 0 0 0 0 0 0 0 0 0 0 0 0 0 0 0 0 0 0 0 0 0 0 0 0 0 0 0 0 0 0 0 0 0 0 0 0 0 0 0
0 0 0 0 0 0 0 0 0 0 0 0 0 0 0 0 0 0 0 0 0 0 0 0 0 0 0 0 0 0 0 0 0 0 0 0 0 0 0 0 0 0 0
0 0 0 0 0 0 0 0 0 0 0 0 0 0 0 0 0 0 0 0 0 0 0 0 0 0 0 0 0 0 0 0 0 0 0 0 0 0 0 0 0 0 0
0 0 0 0 0 0 0 0 0 0 0 0 0 0 0 0 0 0 0 0 0 0 0 0 0 0 0 0 0 0 0 0 0 0 0 0 0 0 0 0 0 0 0
0 0 0 0 0 0 0 0 0 0 0 0 0 0 0 0 0 0 0 0 0 0 0 0 0 0 0 0 0 0 0 0 0 0 0 0 0 0 0 0 0 0 0
0 0 0 0 0 0 0 0 0 0 0 0 0 0 0 0 0 0 0 0 0 0 0 0 0 0 0 0 0 0 0 0 0 0 0 0 0 0 0 0 0 0 0
Wind_Speed
10 10 11 12 12 11 11 11 10 9 8 6 6 5 5 4 3 4 5 5 5 6 5 3 4 4 3 3 4 3 3 2 2 3 2 2 2 1 0 1 1 2 2
9 10 11 12 13 13 12 12 11 10 10 8 6 4 4 3 3 3 4 5 6 6 6 5 4 4 3 4 3 3 2 2 1 3 2 1 2 2 1 0 1 2 1
13 13 13 13 12 13 14 13 12 11 10 8 5 4 3 2 2 3 3 4 5 6 5 6 5 5 4 4 4 4 4 3 1 1 3 3 2 1 1 1 1 1 1
11 12 12 13 13 13 12 11 11 10 10 9 9 9 7 5 5 5 4 4 5 5 6 6 6 5 4 4 4 4 3 4 3 1 1 1 3 2 0 1 1 1 2
12 12 13 14 12 11 10 10 10 10 10 10 11 10 7 5 4 4 5 5 4 5 5 6 5 5 4 4 4 4 3 3 3 3 2 2 2 1 2 1 1 1 1
11 11 11 9 8 9 9 9 9 9 10 11 11 10 10 8 8 7 7 5 3 3 5 5 5 5 4 5 4 4 4 3 3 3 3 3 3 3 2 2 1 1 1
10 10 10 10 10 11 11 10 10 10 11 11 11 10 10 10 11 9 8 7 5 4 6 6 5 5 5 5 4 4 4 4 4 4 2 2 2 3 3 3 2 1 1
9 10 11 11 11 12 12 12 12 11 11 12 11 9 9 8 7 8 7 8 6 6 6 6 6 6 6 5 5 4 4 3 4 4 3 2 2 3 3 3 4 2 1
10 10 10 10 10 10 11 12 12 11 11 11 10 9 9 9 8 8 7 6 5 6 7 7 7 6 6 6 5 4 4 4 3 4 4 2 2 2 2 2 3 4 2
8 9 9 9 9 9 9 9 10 11 10 10 10 9 9 9 9 8 8 8 7 7 8 8 7 7 6 6 5 4 4 5 3 3 4 3 2 2 2 2 2 2 3
9 8 8 8 8 7 8 9 9 8 8 9 9 9 9 9 8 8 9 9 8 8 9 8 8 8 7 6 6 5 6 6 4 4 4 4 3 2 2 2 2 2 3
6 7 7 7 7 8 8 9 9 9 9 9 8 9 9 9 9 9 9 9 8 8 9 8 8 8 8 7 7 7 6 6 6 5 5 4 3 3 2 2 3 2 3
5 5 6 6 7 7 8 8 8 9 8 8 8 8 9 9 10 9 9 9 9 8 8 9 9 9 9 8 8 7 7 7 6 6 6 5 5 4 3 3 3 2 2
5 6 5 6 6 6 7 7 7 7 8 8 9 9 9 9 9 8 8 9 9 9 9 10 10 9 9 9 8 7 7 6 6 6 6 6 7 6 5 4 4 3 3
5 5 5 5 5 6 6 6 6 6 7 8 9 9 8 8 8 8 8 8 9 10 9 9 9 8 8 8 9 8 8 7 6 5 6 6 8 8 7 5 5 4 3
4 4 5 5 6 7 7 6 6 7 7 8 9 8 7 8 8 8 8 8 8 8 9 10 10 10 8 11 13 10 8 7 7 6 6 6 7 8 10 9 8 8 6
4 4 4 5 6 7 7 8 7 6 7 8 8 8 8 9 9 9 8 9 9 8 9 9 9 10 10 12 14 13 8 8 7 7 6 5 5 6 5 7 8 8 9
3 4 3 3 4 4 5 6 6 7 7 8 8 8 8 9 8 8 9 9 8 8 9 9 9 8 9 12 13 13 9 7 7 7 7 7 6 6 6 5 5 5 6
2 2 3 3 3 4 5 6 6 7 8 9 9 9 9 9 8 9 9 8 7 8 8 8 9 9 8 12 12 11 6 6 6 6 7 7 7 8 8 6 5 5 5
1 0 0 1 2 3 5 6 7 8 9 10 9 9 9 9 9 9 8 6 6 8 8 7 8 9 8 9 11 11 5 5 5 4 5 7 8 7 8 7 6 6 6
2 2 1 0 1 2 4 6 6 8 8 7 7 8 8 8 8 7 6 6 6 6 7 7 6 6 6 7 10 11 6 6 5 4 4 4 7 8 8 7 6 7 5
3 3 2 1 1 1 3 4 5 4 4 5 6 7 7 7 6 6 6 6 7 6 6 5 4 3 4 5 7 10 9 7 5 4 3 3 5 6 6 5 5 6 4
3 3 2 2 2 1 2 3 2 2 4 5 6 6 6 5 5 6 6 5 5 5 5 4 4 3 2 3 5 7 8 7 4 3 3 3 3 3 3 4 4 4 3
4 3 3 3 3 3 1 0 1 2 4 6 5 5 6 5 4 4 4 4 4 5 4 4 4 3 2 2 2 3 3 4 3 2 2 3 3 2 1 1 1 1 2
4 4 3 3 3 3 3 2 1 3 4 5 5 5 5 6 5 4 3 3 2 3 5 4 4 4 3 3 5 5 4 4 4 4 3 2 2 1 1 1 0 1 1
4 4 5 4 4 4 4 4 2 3 5 5 5 5 5 5 5 6 6 9 7 7 6 5 6 4 5 7 8 7 6 6 7 5 3 2 1 1 1 0 0 0 0
Wind_Direction
189 178 180 179 179 181 179 182 181 175 167 165 168 168 178 176 173 179 180 179 174 166 162 166 158 158 158 159 146 125 109 95 110 95 63 28 28 52 230 231 216 220 211
177 178 180 182 184 184 184 184 183 180 178 177 172 168 164 164 176 179 175 180 177 171 173 166 166 165 152 147 151 134 122 108 118 119 107 55 358 355 6 269 232 231 208
188 185 186 187 185 187 187 189 185 182 179 169 154 140 121 107 149 171 180 186 183 178 172 170 166 167 162 166 168 154 145 144 123 116 140 147 203 279 332 324 271 230 217
190 187 187 189 191 191 188 185 182 178 175 168 167 168 172 178 187 178 181 177 180 179 175 170 170 167 167 168 174 164 151 143 149 127 94 128 152 150 217 323 323 266 235
188 188 191 193 190 183 180 179 174 176 175 175 178 178 179 176 165 162 171 176 175 180 178 170 166 167 170 173 169 160 156 153 156 157 145 119 85 104 145 216 295 316 279
186 184 186 178 172 170 173 175 174 180 179 180 181 183 179 170 165 174 180 182 174 176 180 173 170 171 170 171 173 169 165 164 155 156 157 157 159 173 161 177 218 252 295
182 174 172 173 173 174 175 177 181 185 185 186 187 186 183 179 180 181 183 180 179 186 191 181 176 175 175 171 165 165 167 168 164 169 174 173 175 158 154 152 166 216 295
178 176 178 176 179 180 178 179 185 189 186 188 190 187 184 184 187 183 180 185 190 190 183 180 180 178 174 171 165 164 171 169 171 176 170 169 178 170 169 162 152 155 290
178 179 177 175 179 183 185 185 187 189 189 188 186 187 189 188 186 183 181 183 184 183 179 180 181 179 173 169 165 169 171 167 175 177 174 172 177 176 176 165 163 160 188
175 175 177 179 180 182 183 183 187 189 188 186 189 191 193 193 187 180 184 184 183 178 175 180 181 178 174 171 168 167 169 167 174 172 167 170 167 160 161 165 166 166 170
176 177 179 178 175 174 176 180 183 182 185 189 192 190 192 190 187 188 190 187 182 180 181 182 180 179 177 174 173 177 172 174 177 176 177 182 166 163 161 153 158 165 162
173 173 170 165 168 174 178 183 185 188 191 190 189 191 189 186 190 194 193 187 187 187 185 181 180 183 181 178 180 184 182 181 183 185 180 187 176 171 170 168 174 179 181
160 158 155 163 174 180 183 185 188 193 189 183 185 188 188 189 195 197 193 189 189 188 185 182 185 187 183 183 187 185 184 189 191 188 190 193 180 188 188 187 187 187 182
157 159 162 171 178 183 185 185 191 191 185 183 187 192 194 194 196 195 193 193 191 188 188 189 190 188 183 184 187 185 186 192 198 197 199 197 194 198 195 196 196 186 180
158 168 172 178 182 185 189 188 189 186 184 185 191 197 195 191 189 192 195 194 192 194 191 188 190 188 186 189 186 188 190 193 200 204 207 209 208 206 201 199 195 186 188
177 184 182 182 192 195 193 192 194 189 181 188 195 192 187 188 192 195 194 194 196 194 189 191 192 193 199 194 188 187 191 194 199 207 214 219 218 218 216 216 205 192 194
184 191 200 201 203 201 196 196 198 189 187 193 194 191 188 192 195 195 191 196 197 192 192 195 195 199 201 192 190 191 188 196 204 208 211 221 221 212 215 220 218 217 219
197 203 207 211 209 201 197 192 186 187 193 197 197 194 192 197 195 191 196 199 195 194 197 195 196 197 201 195 195 194 194 202 208 211 212 214 218 213 209 213 219 225 230
201 213 214 217 208 202 192 182 188 191 196 201 200 197 194 196 195 198 200 197 191 195 195 191 192 197 203 196 194 187 190 205 217 219 217 215 220 219 204 202 218 237 250
70 37 209 198 207 206 183 183 193 197 204 203 199 193 190 192 197 201 198 190 188 195 191 192 194 196 201 192 189 183 188 202 216 221 220 219 221 218 203 203 212 233 247
68 58 66 130 244 202 181 189 195 207 209 198 186 183 186 189 192 189 181 176 178 179 182 185 188 191 194 188 186 183 189 199 206 213 220 223 213 218 214 208 217 231 237
58 57 53 5 337 181 175 187 208 214 188 176 177 179 180 184 182 173 170 167 168 173 177 175 177 178 180 183 187 188 194 193 197 209 210 209 200 207 212 211 221 229 231
44 49 52 30 11 24 166 192 221 183 165 165 168 167 164 166 162 163 163 158 162 168 172 171 175 172 160 161 174 184 192 195 193 193 178 180 187 192 204 216 219 220 215
35 40 47 44 26 17 28 227 171 160 161 161 158 154 152 147 140 141 146 152 161 166 166 168 169 159 148 161 163 166 173 178 178 177 142 137 138 137 131 139 221 213 207
33 36 46 44 30 23 27 24 88 135 141 144 141 140 136 132 124 109 92 124 126 156 160 166 159 157 165 177 161 158 160 160 156 136 110 101 101 103 98 94 81 97 117
45 42 39 37 28 30 35 31 51 125 136 134 133 133 127 124 123 118 96 61 70 79 95 111 126 122 129 129 130 132 132 133 131 119 117 127 134 152 178 177 103 79 119